Flag for U.S.A. Weather past 2 weeks in Cape Canaveral, Florida, U.S.A.

Now
83 °F

Sunny.


Feels Like: 88 °F
Forecast: 76 / 87 °F
Wind: 12 mph from Northeast

Location: Cape Kennedy

Current Time: May 22, 2015 at 5:06:22 PM

Latest Report: May 22, 2015 at 3:58 PM


Visibility: 10 mi

Pressure: 30.09 "Hg

Humidity: 68%

Dew point: 72 °F

Location of Cape CanaveralLocation

Historic Weather in Cape Canaveral — Graph

°F

Cape Canaveral temperature yesterday

Maximum temperature yesterday: 90 °F (at 1:58 PM)
Minimum temperature yesterday: 75 °F (at 3:58 AM)
Average temperature yesterday: 81 °F

Past Weeks' High & Low Weather Summary

 TemperatureHumidityPressure
High90 °F (May 21, 1:58 PM)100% (May 12, 4:58 AM)30.24 "Hg (May 12, 4:58 AM)
Low66 °F (May 8, 6:58 AM)43% (May 9, 2:58 PM)29.92 "Hg (May 20, 5:58 PM)
Average78 °F78%30.10 "Hg
* Reported May 7 3:58 PM — May 22 3:58 PM, Cape Canaveral, Weather by CustomWeather, © 2015

Note: Actual official high and low records may vary slightly from our data, if they occured in-between our weather recording intervals... More about our weather records

Advertising

Cape Canaveral weather history for previous 24 hours

 ConditionsComfort  
Time TempWeatherWind HumidityBarometerVisibility
3:58 PM
Fri, May 22
83 °FSunny.12 mph68%30.09 "Hg10 mi
2:58 PM84 °FSunny.10 mph65%30.10 "Hg10 mi
1:58 PM85 °FPassing clouds.8 mph63%30.10 "Hg10 mi
12:58 PM86 °FSunny.9 mph62%30.10 "Hg10 mi
11:58 AM85 °FSunny.12 mph63%30.10 "Hg10 mi
10:58 AM84 °FSunny.10 mph66%30.09 "Hg10 mi
9:58 AM82 °FSunny.10 mph74%30.08 "Hg10 mi
8:58 AM80 °FSunny.8 mph81%30.07 "Hg10 mi
7:58 AM78 °FSunny.8 mph89%30.05 "Hg10 mi
6:58 AM76 °FClear.6 mph91%30.03 "Hg10 mi
5:58 AM77 °FClear.6 mph90%30.01 "Hg10 mi
4:58 AM77 °FClear.7 mph89%30.01 "Hg10 mi
3:58 AM78 °FClear.6 mph86%30.00 "Hg10 mi
2:58 AM78 °FClear.6 mph85%30.00 "Hg10 mi
1:58 AM78 °FClear.9 mph81%29.99 "Hg10 mi
12:58 AM79 °FClear.7 mph84%30.00 "Hg10 mi
11:58 PM
Thu, May 21
79 °FClear.2 mph84%30.00 "Hg10 mi
10:58 PM80 °FClear.8 mph86%29.99 "Hg10 mi
9:58 PM80 °FClear.10 mph84%29.97 "Hg10 mi
8:58 PM80 °FSunny.9 mph82%29.95 "Hg10 mi
7:58 PM81 °FSunny.8 mph71%29.93 "Hg10 mi
6:58 PM78 °FSunny.6 mph73%29.93 "Hg10 mi
5:58 PM82 °FThundershowers. Sunny.12 mph78%29.95 "Hg10 mi
Weather by CustomWeather, © 2015

See weather overviewHow to use our weather pages